Date,TemperatureHighF,TemperatureAvgF,TemperatureLowF,DewpointHighF,DewpointAvgF,DewpointLowF,HumidityHigh,HumidityAvg,HumidityLow,PressureMaxIn,PressureMinIn,WindSpeedMaxMPH,WindSpeedAvgMPH,GustSpeedMaxMPH,PrecipitationSumIn
2013-1-1,24,17,8,18,11,5,86,78,62,30.22,30.09,8,4,0,0.00
2013-1-2,36,22,9,27,16,5,90,80,69,30.17,30.01,12,5,0,0.00
2013-1-3,41,28,18,33,24,16,93,82,65,30.33,30.16,6,2,0,0.00
2013-1-4,43,29,15,30,23,12,91,79,59,30.33,30.16,16,5,0,0.00
2013-1-5,43,35,29,36,30,24,88,83,78,30.17,29.98,14,6,0,0.00
2013-1-6,41,29,22,26,22,18,85,74,51,30.29,30.05,6,3,0,0.00
2013-1-7,49,35,24,32,26,19,84,70,50,30.22,29.98,15,7,0,0.00
2013-1-8,54,42,29,39,32,24,83,70,53,30.08,29.88,18,7,0,0.00
2013-1-9,53,40,27,40,33,26,96,77,59,30.34,30.08,7,2,0,0.00
2013-1-10,49,42,37,49,39,29,98,91,70,30.27,29.63,13,6,0,0.23
2013-1-11,62,54,49,52,49,48,98,83,66,29.67,29.49,23,10,0,0.01
2013-1-12,56,32,22,48,25,16,94,76,46,29.99,29.61,11,6,0,0.00
2013-1-13,26,18,10,15,10,5,87,72,60,30.27,29.93,8,3,0,0.00
2013-1-14,26,16,6,13,9,2,89,76,55,30.42,30.27,6,2,0,0.00
2013-1-15,28,17,9,18,12,6,90,79,53,30.32,30.09,7,2,0,0.00
2013-1-16,43,28,14,28,20,10,86,72,55,30.09,29.91,15,6,0,0.00
2013-1-17,43,34,28,30,28,24,96,80,55,30.40,30.07,9,4,0,0.00
2013-1-18,56,42,30,38,32,26,84,69,49,30.34,29.95,21,11,0,0.00
2013-1-19,61,47,39,41,35,30,80,64,41,30.14,29.88,16,7,0,0.00
2013-1-20,39,27,18,30,16,9,81,63,50,30.30,30.14,10,6,0,0.00
2013-1-21,24,17,12,11,5,-2,82,60,36,30.35,30.29,11,4,0,0.00
2013-1-22,26,18,12,11,6,1,70,59,50,30.35,30.20,8,5,0,0.00
2013-1-23,48,29,11,28,18,7,83,64,45,30.33,30.07,10,4,0,0.00
2013-1-24,26,19,9,15,8,1,76,62,54,30.46,30.09,16,9,0,0.00
2013-1-25,47,32,20,26,18,10,74,56,43,30.15,30.04,11,2,0,0.00
2013-1-26,50,35,26,32,26,20,84,70,50,30.24,30.03,10,5,0,0.00
2013-1-27,61,49,35,57,45,28,98,87,61,30.03,29.67,16,9,0,0.14
2013-1-28,74,64,56,64,60,55,97,85,64,29.78,29.59,21,10,0,0.04
2013-1-29,67,53,36,63,52,36,98,95,85,29.58,29.35,24,10,0,1.66
2013-1-30,36,28,20,36,24,15,98,86,71,29.88,29.34,22,11,0,0.01
2013-1-31,26,18,6,19,10,-2,91,73,60,30.40,29.85,21,8,0,0.00
2013-2-1,27,16,2,17,7,-3,84,67,54,30.40,30.06,14,6,0,0.00
2013-2-2,44,33,23,36,26,17,98,75,63,30.11,29.94,10,5,0,0.00
2013-2-3,44,37,32,34,25,17,83,63,41,30.18,29.78,13,6,0,0.00
2013-2-4,46,34,20,36,28,20,97,80,65,29.89,29.69,17,6,0,0.00
2013-2-5,55,36,20,39,28,20,98,77,48,30.02,29.79,12,4,0,0.00
2013-2-6,61,44,25,42,35,24,98,73,49,30.04,29.81,16,6,0,0.00
2013-2-7,49,43,33,48,41,31,98,94,70,30.09,29.78,17,7,0,1.02
2013-2-8,36,32,29,31,29,27,94,89,79,30.27,30.08,17,7,0,0.00
2013-2-9,48,36,28,38,32,27,98,86,62,30.18,29.70,15,9,0,0.00
2013-2-10,57,47,37,52,39,26,98,76,52,29.80,29.35,26,13,0,0.03
2013-2-11,50,38,29,32,27,24,85,66,46,30.06,29.82,10,4,0,0.00
2013-2-12,41,32,23,31,27,22,98,82,63,30.08,29.85,7,2,0,0.00
2013-2-13,56,40,24,37,30,22,98,72,43,29.85,29.69,12,4,0,0.00
2013-2-14,51,42,32,37,32,26,88,69,51,30.05,29.71,16,6,0,0.00
2013-2-15,37,30,23,30,18,13,82,61,39,30.27,30.06,15,8,0,0.00
2013-2-16,36,28,14,24,19,10,90,69,54,30.23,30.00,10,4,0,0.00
2013-2-17,57,42,26,37,30,21,81,63,47,30.01,29.62,16,7,0,0.00
2013-2-18,55,43,26,52,36,19,98,76,57,29.96,29.44,23,11,0,0.09
2013-2-19,33,25,16,19,12,6,81,60,37,30.27,29.96,20,8,0,0.00
2013-2-20,26,19,13,16,11,4,77,70,63,30.31,30.13,11,7,0,0.00
2013-2-21,26,23,21,26,21,14,98,91,72,30.14,29.66,20,9,0,0.00
2013-2-22,34,26,12,34,23,-58,98,96,1,29.98,29.66,8,3,0,0.13
2013-2-23,32,20,6,30,18,5,98,91,68,29.99,29.87,10,3,0,0.01
2013-2-24,40,29,10,32,23,9,98,82,66,29.96,29.84,10,4,0,0.06
2013-2-25,37,32,25,33,28,23,98,85,75,29.89,29.57,20,10,0,0.00
2013-2-26,33,32,30,32,31,29,98,98,98,29.74,29.43,17,10,0,0.04
2013-2-27,34,31,29,31,29,26,98,92,82,29.91,29.72,16,8,0,0.07
2013-2-28,34,30,26,29,27,24,92,86,77,30.10,29.91,16,9,0,0.00
2013-3-1,32,28,24,27,26,23,98,91,81,30.21,30.06,14,8,0,0.00
2013-3-2,32,25,17,24,19,16,98,80,64,30.27,30.12,11,5,0,0.00
2013-3-3,42,30,16,30,24,16,98,79,60,30.12,29.73,11,6,0,0.00
2013-3-4,47,38,32,36,32,28,93,79,67,29.84,29.58,14,8,0,0.00
2013-3-5,36,32,28,34,26,21,98,78,66,30.23,29.84,23,13,0,0.02
2013-3-6,34,26,20,25,21,17,97,80,68,30.35,30.22,19,5,0,0.00
2013-3-7,43,31,19,33,26,18,98,82,67,30.25,30.09,10,6,0,0.00
2013-3-8,49,40,31,40,35,28,97,81,67,30.17,29.95,11,6,0,0.11
2013-3-9,58,45,39,50,43,39,98,94,72,29.95,29.57,11,7,0,1.12
2013-3-10,53,44,31,52,43,30,98,97,80,29.75,29.50,18,8,0,0.33
2013-3-11,36,29,23,30,26,22,98,88,69,29.92,29.71,14,6,0,0.00
2013-3-12,47,35,22,34,27,22,98,76,55,30.23,29.92,23,7,0,0.00
2013-3-13,44,32,22,28,24,18,93,73,51,30.40,30.23,13,5,0,0.00
2013-3-14,70,48,30,49,37,26,92,68,45,30.28,29.95,16,5,0,0.00
2013-3-15,79,56,33,57,46,32,98,75,46,30.00,29.55,14,5,0,0.00
2013-3-16,56,42,36,50,38,31,96,85,74,29.99,29.57,21,12,0,0.00
2013-3-17,36,33,31,34,31,28,98,92,82,29.99,29.67,17,10,0,0.60
2013-3-18,54,40,32,41,33,22,98,78,47,29.99,29.64,17,8,0,0.01
2013-3-19,45,35,26,35,26,20,98,72,44,30.16,29.98,9,3,0,0.00
2013-3-20,38,30,23,33,19,11,98,65,38,30.28,30.06,19,9,0,0.00
2013-3-21,30,26,19,28,19,12,91,75,59,30.04,29.84,10,6,0,0.00
2013-3-22,35,32,29,32,29,26,95,87,82,29.92,29.85,10,6,0,0.00
2013-3-23,43,36,32,36,32,30,98,86,67,29.94,29.78,16,9,0,0.24
2013-3-24,33,30,25,33,29,21,98,93,85,29.93,29.66,20,14,0,0.07
2013-3-25,35,28,22,29,24,19,96,84,73,30.22,29.90,19,9,0,0.00
2013-3-26,41,30,22,28,24,19,96,79,57,30.31,30.22,9,4,0,0.00
2013-3-27,46,35,22,37,30,21,98,83,65,30.27,30.13,10,5,0,0.00
2013-3-28,64,50,37,47,41,34,87,72,52,30.16,30.04,9,5,0,0.00
2013-3-29,67,52,36,49,42,36,98,73,41,30.13,30.03,11,5,0,0.00
2013-3-30,58,50,46,56,48,40,98,92,74,30.02,29.79,13,4,0,0.41
2013-3-31,68,53,43,52,45,35,98,77,51,29.88,29.80,16,6,0,0.00
2013-4-1,46,39,31,37,28,23,91,67,44,30.20,29.89,17,9,0,0.00
2013-4-2,48,37,24,30,26,21,86,65,46,30.27,30.17,12,4,0,0.00
2013-4-3,50,40,30,31,28,25,94,64,40,30.29,30.15,16,7,0,0.00
2013-4-4,63,47,37,42,33,29,90,62,32,30.15,29.96,7,3,0,0.00
2013-4-5,69,53,36,49,42,31,93,67,47,30.09,29.81,14,5,0,0.00
2013-4-6,75,63,55,57,48,41,70,60,48,29.81,29.55,25,12,0,0.00
2013-4-7,76,60,41,57,51,41,98,75,49,29.79,29.58,15,4,0,0.44
2013-4-8,75,65,54,67,62,53,98,90,75,29.67,29.58,12,6,0,0.06
2013-4-9,73,68,64,67,64,61,92,86,78,29.71,29.59,17,8,0,0.00
2013-4-10,70,48,42,65,48,42,98,97,81,29.81,29.58,24,8,0,0.99
2013-4-11,42,38,35,41,34,31,98,85,69,29.69,29.61,16,7,0,0.01
2013-4-12,51,40,31,38,33,29,92,78,60,29.93,29.65,17,6,0,0.00
2013-4-13,62,48,33,47,40,32,98,74,57,29.99,29.67,12,5,0,0.00
2013-4-14,77,63,50,60,53,45,98,71,46,29.67,29.37,29,12,0,0.04
2013-4-15,58,50,46,53,45,39,98,83,68,29.90,29.61,19,7,0,0.20
2013-4-16,47,44,41,42,39,38,93,83,76,30.06,29.90,17,11,0,0.09
2013-4-17,59,50,46,58,49,42,98,97,88,30.00,29.53,15,8,0,0.65
2013-4-18,52,43,37,52,40,31,98,91,76,29.81,29.42,19,10,0,0.99
2013-4-19,53,42,34,34,31,28,82,65,44,30.01,29.78,16,9,0,0.00
2013-4-20,56,45,27,39,33,26,97,64,45,30.18,30.01,10,5,0,0.00
2013-4-21,69,57,45,48,44,37,83,63,45,30.18,30.02,20,9,0,0.00
2013-4-22,68,58,46,51,47,41,85,67,47,30.09,29.83,15,7,0,0.00
2013-4-23,54,39,35,51,38,34,98,96,87,30.05,29.87,20,12,0,0.38
2013-4-24,53,42,31,37,34,29,98,75,47,30.16,30.05,13,6,0,0.04
2013-4-25,66,53,32,49,42,32,98,68,46,30.24,30.08,12,4,0,0.00
2013-4-26,58,52,48,52,48,46,98,88,70,30.19,30.08,25,8,0,0.43
2013-4-27,53,50,47,52,49,46,98,98,96,30.16,29.92,11,5,0,0.68
2013-4-28,72,58,44,60,53,43,98,84,62,29.92,29.72,13,4,0,0.01
2013-4-29,83,69,54,69,61,52,94,77,60,29.75,29.53,19,9,0,0.00
2013-4-30,82,72,63,64,60,56,87,66,44,29.75,29.57,25,10,0,0.00
2013-5-1,85,69,48,67,58,44,87,68,50,30.04,29.74,21,8,0,0.00
2013-5-2,47,40,32,43,38,31,98,92,86,30.26,30.04,21,14,0,0.26
2013-5-3,34,33,32,34,32,29,98,94,88,30.19,29.78,12,9,0,0.23
2013-5-4,47,40,33,43,38,32,98,92,82,29.93,29.72,10,4,0,0.15
2013-5-5,64,52,45,58,50,43,98,93,80,30.01,29.91,13,6,0,0.00
2013-5-6,72,58,50,62,54,50,98,88,60,30.01,29.91,10,6,0,0.00
2013-5-7,81,65,48,62,57,48,98,77,47,29.98,29.86,8,2,0,0.00
2013-5-8,74,63,52,63,58,52,98,86,65,29.94,29.81,16,4,0,0.00
2013-5-9,79,65,59,68,62,58,98,90,60,29.84,29.74,11,4,0,0.51
2013-5-10,64,58,49,59,55,48,98,93,76,29.95,29.80,10,5,0,0.01
2013-5-11,66,55,46,55,44,36,98,68,41,30.15,29.94,23,8,0,0.00
2013-5-12,68,54,37,48,37,32,92,56,32,30.20,30.05,9,3,0,0.00
2013-5-13,78,62,42,60,51,40,95,71,47,30.09,29.85,15,5,0,0.00
2013-5-14,92,76,60,65,61,57,92,63,37,29.85,29.67,18,7,0,0.00
2013-5-15,87,75,64,71,65,58,93,72,56,29.80,29.67,10,6,0,0.00
2013-5-16,82,70,58,69,64,58,98,82,61,29.82,29.68,15,5,0,0.00
2013-5-17,85,69,58,68,63,57,98,83,55,29.87,29.77,7,2,0,0.00
2013-5-18,87,74,61,74,67,60,98,82,61,29.84,29.71,13,5,0,0.00
2013-5-19,85,75,61,74,68,60,97,81,66,29.76,29.46,19,9,0,0.14
2013-5-20,76,65,60,71,60,-39,98,90,1,29.69,29.52,24,8,0,0.36
2013-5-21,74,66,58,65,62,57,98,87,75,29.68,29.55,11,4,0,0.00
2013-5-22,69,62,52,60,56,52,98,83,69,29.84,29.62,6,2,0,0.00
2013-5-23,66,60,53,60,56,52,98,86,78,30.15,29.84,16,5,0,0.00
2013-5-24,72,61,49,59,53,49,98,76,51,30.30,30.09,16,6,0,0.00
2013-5-25,82,69,59,72,62,51,93,77,69,30.13,29.91,16,6,0,0.00
2013-5-26,85,75,64,74,70,63,98,85,67,29.98,29.79,17,6,0,0.00
2013-5-27,78,70,63,73,67,62,98,93,82,29.92,29.61,20,7,0,0.42
2013-5-28,78,72,68,73,70,68,98,94,84,29.74,29.55,19,6,0,0.16
2013-5-29,84,74,64,74,69,63,98,85,69,29.80,29.59,20,10,0,0.02
2013-5-30,71,65,62,69,64,61,98,96,87,29.70,29.53,24,10,0,0.91
2013-5-31,78,67,61,73,66,60,98,96,83,29.72,29.58,12,5,0,0.60
2013-6-1,76,66,60,64,61,58,98,85,62,29.87,29.59,8,3,0,0.00
2013-6-2,67,60,54,58,55,50,93,85,69,30.00,29.86,9,5,0,0.00
2013-6-3,74,63,47,62,56,46,98,79,62,30.01,29.82,10,4,0,0.00
2013-6-4,73,65,59,70,63,58,98,93,82,29.96,29.81,12,5,0,0.20
2013-6-5,69,64,59,68,63,58,98,98,96,29.91,29.80,8,4,0,0.12
2013-6-6,76,68,62,66,62,59,98,84,60,29.86,29.81,11,4,0,0.02
2013-6-8,80,75,69,65,64,62,82,70,58,29.76,29.71,12,7,0,0.00
2013-6-9,83,69,62,69,64,61,98,84,54,29.79,29.66,12,4,0,0.45
2013-6-10,92,74,61,70,66,60,98,79,48,29.78,29.70,8,3,0,0.00
2013-6-11,95,81,68,76,71,66,97,74,49,29.79,29.66,12,5,0,0.00
2013-6-12,97,84,74,78,75,68,95,75,53,29.80,29.66,16,7,0,0.00
2013-6-13,86,75,63,68,64,59,95,72,51,29.95,29.82,14,5,0,0.00
2013-6-14,88,78,65,73,70,65,98,76,57,29.96,29.78,13,6,0,0.00
2013-6-15,88,74,67,80,71,67,98,91,75,29.92,29.77,20,7,0,0.63
2013-6-16,85,74,67,78,72,66,98,95,79,29.90,29.83,7,3,0,0.00
2013-6-17,74,70,65,72,69,64,98,98,94,29.91,29.81,7,2,0,0.29
2013-6-18,86,74,65,76,68,64,98,83,54,29.95,29.88,17,4,0,0.01
2013-6-19,88,76,63,73,69,62,98,80,55,29.96,29.87,9,3,0,0.00
2013-6-20,89,79,67,76,72,66,98,80,64,29.96,29.84,17,7,0,0.00
2013-6-21,93,83,75,80,76,72,93,80,65,29.91,29.82,14,8,0,0.00
2013-6-22,92,83,72,80,76,71,98,81,63,29.92,29.76,23,7,0,0.00
2013-6-23,88,79,72,81,75,72,98,88,73,29.88,29.75,15,7,0,0.26
2013-6-24,92,82,73,79,75,72,97,82,64,29.90,29.72,15,8,0,0.00
2013-6-25,88,82,77,78,75,72,90,81,69,29.80,29.64,19,8,0,0.00
2013-6-26,98,86,74,81,74,68,96,71,41,29.78,29.61,11,5,0,0.00
2013-6-27,102,79,68,81,74,67,98,85,50,29.92,29.72,6,2,0,0.03
2013-6-28,88,76,67,74,66,63,98,75,47,29.85,29.73,9,3,0,0.00
2013-6-29,85,74,65,69,65,60,96,75,52,29.76,29.67,14,5,0,0.01
2013-6-30,78,70,61,67,64,60,98,81,62,29.91,29.75,18,6,0,0.00
2013-7-1,81,71,59,64,59,57,95,70,47,29.97,29.90,21,8,0,0.00
2013-7-2,82,71,58,64,60,56,94,70,48,30.02,29.91,13,5,0,0.00
2013-7-3,87,70,58,68,63,58,98,79,51,29.97,29.88,9,2,0,0.15
2013-7-4,88,72,58,69,63,57,98,76,47,29.97,29.83,8,3,0,0.00
2013-7-5,122,78,61,86,66,60,98,70,35,29.93,29.78,11,5,0,0.00
2013-7-6,91,77,65,72,68,64,97,77,52,29.89,29.77,11,5,0,0.00
2013-7-7,91,80,68,76,71,67,97,78,57,29.91,29.83,15,6,0,0.00
2013-7-8,93,81,72,78,73,69,90,78,59,29.96,29.88,12,5,0,0.00
2013-7-9,97,85,73,81,77,72,96,78,58,29.93,29.77,17,6,0,0.00
2013-7-10,93,85,74,78,71,66,80,65,44,29.94,29.85,11,5,0,0.00
2013-7-11,88,77,66,69,66,64,93,69,48,30.01,29.90,10,5,0,0.00
2013-7-12,89,76,64,69,66,62,96,71,47,30.00,29.88,15,5,0,0.00
2013-7-13,85,74,65,70,66,62,92,76,60,29.98,29.88,13,5,0,0.00
2013-7-14,88,77,64,71,67,63,98,73,49,30.02,29.93,10,4,0,0.00
2013-7-15,90,78,69,77,72,68,97,82,56,30.12,30.02,10,4,0,0.00
2013-7-16,98,84,70,80,74,65,98,75,48,30.20,30.09,9,3,0,0.00
2013-7-17,98,84,72,81,76,69,96,78,52,30.24,30.10,8,2,0,0.00
2013-7-18,102,87,71,82,73,55,96,66,42,30.12,29.89,10,2,0,0.00
2013-7-19,103,92,80,79,75,73,84,59,42,29.91,29.74,7,2,0,0.00
2013-7-20,92,79,72,80,70,35,92,76,22,29.87,29.76,7,2,0,0.33
2013-7-21,95,78,70,79,48,-34,95,53,1,29.82,29.72,11,4,0,0.16
2013-7-22,103,88,76,82,76,72,91,70,52,29.74,29.65,5,2,0,0.00
2013-7-23,87,78,71,78,73,66,94,83,66,29.83,29.68,12,5,0,0.00
2013-7-24,86,76,64,69,66,62,95,73,55,29.95,29.82,12,6,0,0.00
2013-7-25,86,73,63,73,66,43,94,81,48,29.98,29.92,5,2,0,0.03
2013-7-26,84,73,65,77,70,60,96,91,74,29.95,29.90,9,3,0,0.21
2013-7-27,86,70,57,65,60,55,95,72,46,30.00,29.88,7,3,0,0.00
2013-7-28,88,71,53,67,58,49,95,68,40,29.98,29.89,7,2,0,0.00
2013-7-29,74,67,63,70,62,52,95,86,55,30.02,29.92,10,4,0,0.49
2013-7-30,85,75,69,80,59,11,96,68,10,29.97,29.88,7,3,0,0.10
2013-7-31,86,74,67,74,64,22,96,74,16,30.03,29.94,11,4,0,0.00
2013-8-1,101,80,64,78,55,12,96,51,13,30.02,29.87,8,2,0,0.00
2013-8-2,86,75,69,79,71,55,96,85,57,29.90,29.78,12,3,0,0.39
2013-8-3,88,76,71,79,66,16,97,75,12,30.05,29.81,11,5,0,0.00
2013-8-4,75,72,68,73,68,60,97,89,67,30.07,29.94,7,4,0,0.00
2013-8-5,94,77,69,82,55,-36,97,64,1,29.97,29.72,9,3,0,0.00
2013-8-6,95,80,70,81,70,19,98,74,12,29.79,29.70,13,4,0,0.12
2013-8-7,98,80,72,83,76,71,98,90,61,29.86,29.67,9,3,0,0.09
2013-8-8,77,72,67,73,70,66,98,95,85,29.90,29.81,10,5,0,0.00
2013-8-9,79,72,68,75,71,68,98,97,86,30.01,29.88,7,3,0,0.00
2013-8-10,87,79,68,72,70,67,98,75,56,30.11,30.02,9,6,0,0.00
2013-8-11,91,80,73,76,74,73,98,83,56,30.02,29.92,5,1,0,0.00
2013-8-12,97,77,70,78,73,69,98,89,52,29.96,29.86,9,2,0,0.43
2013-8-13,80,72,65,70,67,64,98,85,62,30.03,29.92,11,4,0,0.00
2013-8-14,87,70,59,67,63,58,98,80,49,30.10,29.99,7,4,0,0.00
2013-8-15,81,67,58,66,61,58,98,84,54,30.04,29.98,7,3,0,0.00
2013-8-16,83,76,66,67,64,62,94,68,55,30.06,30.02,8,3,0,0.00
2013-8-17,70,70,70,65,65,65,86,86,86,30.00,30.00,0,0,0,0.00
2013-8-18,94,85,75,74,71,69,86,63,53,30.08,29.95,7,3,0,0.00
2013-8-19,88,78,61,72,69,61,98,77,54,30.02,29.92,11,4,0,0.00
2013-8-20,92,82,67,75,72,66,98,74,55,29.97,29.90,11,6,0,0.00
2013-8-21,96,79,66,77,72,65,98,83,54,29.99,29.90,11,4,0,0.00
2013-8-22,91,76,69,79,72,68,98,91,66,30.01,29.93,6,2,0,0.01
2013-8-23,100,82,69,81,74,68,98,80,54,30.01,29.91,8,2,0,0.00
2013-8-24,95,80,70,80,74,69,98,84,59,30.08,29.97,12,4,0,0.00
2013-8-25,99,80,66,82,74,65,98,84,55,30.14,30.03,9,4,0,0.00
2013-8-26,100,83,70,81,76,70,98,82,54,30.10,29.97,9,5,0,0.00
2013-8-27,99,85,70,78,74,69,98,73,47,30.00,29.89,13,5,0,0.00
2013-8-28,102,84,67,80,74,66,98,76,47,29.97,29.90,7,3,0,0.00
2013-8-29,82,82,82,77,77,77,85,85,85,29.87,29.87,3,3,0,0.00
2013-8-30,84,82,80,77,76,76,90,85,78,29.75,29.73,5,4,0,0.00
2013-8-31,103,84,74,85,79,74,98,87,57,29.76,29.67,7,3,0,0.00
2013-9-1,92,77,68,80,73,65,98,89,61,29.87,29.66,14,3,0,0.22
2013-9-2,88,72,60,70,66,60,98,84,56,29.94,29.83,10,3,0,0.00
2013-9-3,93,73,56,70,64,55,98,78,47,30.03,29.91,6,2,0,0.00
2013-9-4,100,76,57,74,66,57,98,77,41,30.09,29.95,6,1,0,0.01
2013-9-5,98,77,61,74,67,61,98,76,43,30.14,30.03,8,2,0,0.00
2013-9-6,91,75,61,76,68,61,98,83,51,30.05,29.90,9,3,0,0.00
2013-9-7,98,80,66,78,72,65,98,80,53,29.92,29.79,10,5,0,0.00
2013-9-8,100,84,72,82,76,71,98,80,56,29.82,29.72,13,5,0,0.00
2013-9-9,100,84,72,78,73,69,96,71,44,29.88,29.77,13,5,0,0.00
2013-9-10,100,82,69,77,72,69,98,74,48,29.99,29.87,12,5,0,0.00
2013-9-11,102,82,66,77,71,66,98,73,40,30.05,29.92,7,2,0,0.00
2013-9-12,92,76,65,77,69,55,98,80,57,30.07,29.95,10,4,0,0.00
2013-9-13,79,66,53,62,56,52,98,71,49,30.10,29.97,12,5,0,0.00
2013-9-14,84,65,49,62,55,48,98,73,47,30.04,29.88,9,4,0,0.00
2013-9-15,86,71,61,72,64,56,98,81,56,30.05,29.86,16,6,0,0.08
2013-9-16,65,62,59,64,61,59,98,98,95,30.20,30.04,14,6,0,0.53
2013-9-17,70,64,60,70,64,60,98,98,98,30.12,29.89,8,4,0,0.58
2013-9-18,87,75,64,78,72,64,98,91,74,29.90,29.71,18,8,0,0.03
2013-9-19,94,79,67,79,73,67,98,85,58,29.84,29.66,15,7,0,0.32
2013-9-20,74,64,54,68,60,54,98,87,61,29.92,29.78,10,4,0,0.01
2013-9-21,79,60,46,58,53,46,98,81,46,29.93,29.80,9,2,0,0.00
2013-9-22,81,62,48,61,55,48,98,81,50,29.90,29.77,11,3,0,0.00
2013-9-23,78,63,50,63,58,50,98,83,56,29.86,29.70,16,6,0,0.00
2013-9-24,81,66,58,68,62,58,98,89,63,29.75,29.67,9,4,0,0.00
2013-9-25,85,66,56,72,63,56,98,91,64,29.79,29.70,7,2,0,0.00
2013-9-26,84,70,60,70,66,59,98,86,60,29.83,29.73,17,6,0,0.00
2013-9-27,86,73,62,73,68,62,98,86,63,29.89,29.76,13,6,0,0.00
2013-9-28,73,64,53,70,54,-37,98,85,1,29.99,29.76,14,5,0,0.33
2013-9-29,80,60,47,66,46,23,98,63,32,30.03,29.87,5,1,0,0.00
2013-9-30,77,62,47,69,52,24,98,74,34,29.87,29.75,13,4,0,0.00
2013-10-1,86,69,60,74,43,-39,98,55,1,29.89,29.75,12,3,0,0.00
2013-10-2,89,72,61,78,32,-40,98,48,1,29.93,29.80,11,3,0,0.00
2013-10-3,84,75,68,77,66,-35,98,81,1,29.82,29.66,15,8,0,0.05
2013-10-4,88,76,67,77,72,58,98,88,69,29.79,29.64,18,8,0,0.00
2013-10-5,74,58,44,72,52,43,98,82,56,29.92,29.78,10,4,0,0.05
2013-10-6,62,50,39,51,45,39,98,86,65,29.89,29.76,14,5,0,0.00
2013-10-7,80,58,42,56,49,39,98,78,41,30.05,29.88,5,2,0,0.00
2013-10-8,77,60,46,58,53,41,98,81,50,30.04,29.95,18,5,0,0.00
2013-10-9,80,60,47,59,52,41,98,77,48,30.04,29.94,10,4,0,0.00
2013-10-10,79,62,47,65,55,42,98,79,56,30.00,29.80,11,4,0,0.00
2013-10-11,77,67,56,70,64,53,98,90,78,29.83,29.69,21,9,0,0.00
2013-10-12,73,61,45,68,53,44,98,77,49,30.16,29.76,14,6,0,0.04
2013-10-13,72,57,42,50,45,41,98,67,39,30.33,30.17,11,5,0,0.00
2013-10-14,69,58,46,63,51,42,98,77,53,30.23,29.83,19,8,0,0.01
2013-10-15,66,57,43,63,52,42,98,84,60,29.97,29.77,16,6,0,0.12
2013-10-16,64,52,45,50,46,42,98,82,61,30.02,29.88,8,3,0,0.00
2013-10-17,71,54,43,53,48,43,98,82,50,29.92,29.79,12,4,0,0.04
2013-10-18,54,43,37,45,40,36,98,92,65,30.04,29.91,9,4,0,0.25
2013-10-19,63,46,34,49,41,34,98,87,56,29.97,29.79,11,5,0,0.00
2013-10-20,72,56,44,53,47,42,94,74,47,29.81,29.69,16,6,0,0.00
2013-10-21,57,47,35,49,41,35,98,80,53,30.03,29.81,13,4,0,0.00
2013-10-22,65,49,36,54,43,35,95,81,59,30.01,29.79,18,7,0,0.00
2013-10-23,58,42,30,41,36,29,98,81,52,30.09,29.96,7,3,0,0.00
2013-10-24,52,41,29,38,34,29,98,78,52,30.35,30.06,17,6,0,0.00
2013-10-25,57,41,25,38,32,24,98,72,42,30.39,30.06,16,5,0,0.00
2013-10-26,64,49,35,50,40,32,93,70,46,30.08,29.97,13,6,0,0.00
2013-10-27,64,44,27,42,35,26,98,75,40,30.07,29.85,10,2,0,0.00
2013-10-28,70,49,30,57,45,30,98,86,60,30.07,29.91,10,2,0,0.00
2013-10-29,64,56,48,64,55,47,98,98,97,30.06,29.85,13,4,0,0.65
2013-10-30,69,66,63,68,65,62,98,98,98,29.88,29.63,23,8,0,0.63
2013-10-31,63,53,45,62,52,44,98,98,96,29.62,29.40,9,5,0,0.86
2013-11-1,63,50,42,51,46,41,98,88,61,29.84,29.51,11,4,0,0.02
2013-11-2,58,46,34,48,42,34,98,89,63,30.09,29.84,12,4,0,0.01
2013-11-3,61,47,32,47,41,32,98,80,58,30.10,29.84,18,8,0,0.00
2013-11-4,61,56,51,55,51,46,95,84,75,30.03,29.84,17,8,0,0.01
2013-11-5,61,57,52,60,56,52,98,98,95,30.04,29.76,18,9,0,0.74
2013-11-6,60,42,32,59,40,32,98,95,82,30.23,29.74,14,5,0,0.66
2013-11-7,60,41,30,45,36,30,98,83,53,30.28,30.21,14,3,0,0.00
2013-11-8,65,54,30,47,43,29,98,66,50,30.25,29.80,29,12,0,0.00
2013-11-9,71,53,41,49,44,38,98,74,42,30.20,29.87,14,4,0,0.00
2013-11-10,61,48,37,44,39,34,95,73,43,30.33,30.13,9,3,0,0.00
2013-11-11,64,47,29,55,42,24,98,83,71,30.53,30.06,24,9,0,0.00
2013-11-12,37,24,17,23,18,15,98,78,49,30.78,30.54,18,6,0,0.00
2013-11-13,47,33,16,28,22,15,98,69,44,30.62,30.11,18,8,0,0.00
2013-11-14,54,42,32,36,31,27,82,66,49,30.11,29.88,20,10,0,0.00
2013-11-15,58,49,41,50,43,31,98,80,67,29.90,29.67,16,8,0,0.00
2013-11-16,68,61,50,65,60,50,98,95,88,29.68,29.32,32,17,0,0.08
2013-11-17,69,61,44,66,50,32,98,70,27,29.96,29.23,23,11,0,0.00
2013-11-18,61,44,32,43,37,32,98,80,44,30.20,29.96,8,3,0,0.00
2013-11-19,60,45,29,42,34,28,98,70,43,30.18,29.94,17,6,0,0.00
2013-11-20,50,44,38,44,38,26,98,82,41,29.95,29.81,15,7,0,0.44
2013-11-21,49,44,31,49,43,30,98,97,89,30.29,29.88,18,6,0,0.50
2013-11-22,31,28,23,30,27,22,98,97,93,30.52,30.29,17,10,0,0.00
2013-11-23,27,22,13,24,17,10,98,83,61,30.70,30.50,19,8,0,0.00
2013-11-24,29,20,9,19,14,8,97,77,58,30.69,30.26,10,5,0,0.00
2013-11-25,38,31,24,28,24,19,95,74,63,30.26,30.07,10,5,0,0.00
2013-11-26,37,28,19,31,24,14,98,84,65,30.29,30.04,17,7,0,0.00
2013-11-27,36,23,12,19,15,10,93,73,50,30.34,30.09,13,4,0,0.00
2013-11-28,45,31,21,31,24,19,97,74,58,30.41,30.07,11,6,0,0.00
2013-11-29,51,33,21,38,28,19,98,82,60,30.42,30.19,10,4,0,0.00
2013-11-30,57,40,29,46,36,29,98,85,65,30.18,29.97,13,4,0,0.00
2013-12-1,61,41,25,46,37,24,98,87,57,30.03,29.78,5,1,0,0.00
2013-12-2,49,40,30,48,38,29,98,94,79,29.78,29.51,15,4,0,0.00
2013-12-3,62,46,38,56,19,-52,94,51,1,29.51,29.40,11,4,0,0.01
2013-12-4,51,39,24,46,0,-51,98,55,1,29.90,29.39,15,5,0,0.00
2013-12-5,23,19,17,20,13,11,90,77,70,30.29,29.90,16,8,0,0.00
2013-12-6,18,15,7,11,6,2,80,69,57,30.55,30.28,18,10,0,0.00
2013-12-7,22,12,2,10,6,0,90,75,58,30.65,30.31,12,7,0,0.00
2013-12-8,25,21,18,23,18,9,98,87,68,30.30,29.89,11,5,0,0.00
2013-12-9,20,13,6,19,10,4,97,87,75,30.28,30.04,8,3,0,0.00
2013-12-10,41,22,7,26,15,3,89,75,53,30.23,30.10,12,6,0,0.00
2013-12-11,26,18,2,22,12,0,97,81,60,30.56,30.13,16,6,0,0.00
2013-12-12,47,26,3,28,17,1,93,72,45,30.50,30.10,12,7,0,0.00
2013-12-13,36,32,25,33,-3,-58,98,52,1,30.09,29.77,13,6,0,1.11
2013-12-14,32,27,18,27,8,-58,96,74,1,30.13,29.76,22,7,0,0.00
2013-12-15,46,31,16,39,28,13,97,90,74,30.12,29.85,12,4,0,0.03
2013-12-16,36,28,23,34,15,-32,98,63,6,30.07,29.83,7,2,0,0.00
2013-12-17,49,32,23,40,25,8,98,77,45,30.19,30.05,8,2,0,0.00
2013-12-18,61,50,23,48,41,22,97,73,62,30.15,29.71,22,10,0,0.00
2013-12-19,57,51,47,53,48,42,98,90,82,29.72,29.56,21,9,0,0.00
2013-12-20,52,34,26,52,26,11,98,75,38,29.80,29.55,11,6,0,0.02
2013-12-21,29,28,27,28,27,25,98,95,93,29.64,29.51,13,10,0,0.00
2013-12-22,27,22,10,26,20,9,98,95,80,30.28,29.71,6,2,0,0.00
2013-12-23,18,9,0,12,6,-3,97,87,75,30.54,30.27,7,2,0,0.00
2013-12-24,27,14,-3,25,12,-5,98,90,78,30.52,30.12,9,4,0,0.00
2013-12-25,41,31,27,36,29,24,98,93,81,30.25,30.15,8,4,0,0.25
2013-12-26,46,35,21,39,31,16,98,86,76,30.23,30.08,12,7,0,0.07
2013-12-27,53,40,25,44,34,4,98,82,35,30.25,30.10,11,6,0,0.00
2013-12-28,53,43,35,42,37,32,97,80,64,30.10,29.78,15,8,0,0.00
2013-12-29,36,20,6,34,15,2,98,82,66,30.25,29.80,17,7,0,0.00
2013-12-30,26,17,6,17,9,2,87,73,59,30.23,30.08,12,6,0,0.00
2013-12-31,49,31,14,36,26,13,98,80,62,30.23,29.97,16,6,0,0.00
2014-1-1,35,35,34,29,29,29,79,78,76,29.98,29.96,10,8,0,0.00
2014-1-2,20,8,-4,14,3,-7,90,82,69,30.40,30.31,10,3,0,0.00